QPF
0.01 0.01 0.02 0.04 0.10 0.04 0.01 0.02 0.02 0.03 0.04 0.04 0.04 0.08 0.13 0.15 0.14 0.16 0.20 0.15 0.10 0.08 0.07 0.07 0.05 0.05 0.04 0.03 0.03 0.03 0.02 0.02 0.03 0.02 0.01 0.02 0.03 0.03 0.02 0.02 0.03 0.03 0.04
0.01 0.01 0.01 0.01 0.02 0.01 0.00 0.02 0.02 0.01 0.02 0.02 0.03 0.05 0.07 0.08 0.10 0.13 0.10 0.06 0.05 0.03 0.04 0.05 0.04 0.06 0.06 0.05 0.04 0.03 0.02 0.03 0.03 0.02 0.01 0.03 0.05 0.05 0.04 0.03 0.03 0.03 0.05
0.01 0.01 0.01 0.01 0.01 0.01 0.02 0.02 0.02 0.02 0.01 0.01 0.01 0.02 0.02 0.04 0.05 0.04 0.02 0.02 0.03 0.03 0.03 0.03 0.03 0.03 0.04 0.04 0.04 0.03 0.02 0.02 0.03 0.02 0.02 0.02 0.03 0.06 0.07 0.06 0.05 0.04 0.05
0.01 0.01 0.01 0.02 0.02 0.03 0.03 0.03 0.02 0.01 0.01 0.00 0.00 0.01 0.02 0.02 0.02 0.01 0.01 0.01 0.01 0.02 0.02 0.01 0.02 0.02 0.03 0.03 0.04 0.03 0.03 0.03 0.03 0.04 0.04 0.03 0.03 0.05 0.06 0.06 0.06 0.04 0.03
0.01 0.01 0.02 0.03 0.04 0.04 0.05 0.05 0.03 0.01 0.01 0.01 0.01 0.01 0.01 0.01 0.01 0.01 0.01 0.00 0.01 0.01 0.01 0.01 0.01 0.02 0.02 0.03 0.04 0.04 0.04 0.05 0.06 0.05 0.05 0.05 0.04 0.04 0.05 0.05 0.05 0.05 0.05
0.00 0.01 0.03 0.04 0.05 0.05 0.07 0.08 0.04 0.02 0.02 0.02 0.02 0.01 0.01 0.00 0.00 0.01 0.01 0.00 0.00 0.00 0.00 0.01 0.01 0.01 0.01 0.02 0.02 0.03 0.03 0.04 0.05 0.05 0.05 0.06 0.06 0.07 0.07 0.06 0.06 0.07 0.07
0.01 0.02 0.04 0.05 0.06 0.06 0.08 0.09 0.05 0.03 0.03 0.02 0.03 0.02 0.01 0.01 0.00 0.01 0.01 0.01 0.01 0.01 0.01 0.01 0.01 0.00 0.01 0.01 0.02 0.02 0.03 0.03 0.03 0.04 0.04 0.05 0.06 0.09 0.09 0.07 0.06 0.05 0.04
0.01 0.02 0.04 0.05 0.05 0.04 0.05 0.06 0.04 0.03 0.04 0.03 0.02 0.02 0.02 0.02 0.01 0.01 0.01 0.02 0.02 0.02 0.03 0.03 0.03 0.02 0.02 0.02 0.03 0.03 0.03 0.03 0.03 0.03 0.04 0.06 0.07 0.07 0.07 0.06 0.06 0.04 0.03
0.01 0.02 0.03 0.04 0.03 0.03 0.05 0.09 0.04 0.02 0.02 0.02 0.03 0.02 0.02 0.02 0.01 0.01 0.01 0.01 0.01 0.02 0.03 0.03 0.03 0.03 0.03 0.05 0.05 0.04 0.04 0.04 0.04 0.04 0.06 0.06 0.05 0.07 0.08 0.07 0.06 0.06 0.04
0.01 0.02 0.03 0.03 0.03 0.03 0.05 0.06 0.02 0.02 0.02 0.02 0.02 0.03 0.04 0.03 0.02 0.02 0.01 0.01 0.01 0.01 0.01 0.02 0.02 0.02 0.03 0.04 0.04 0.03 0.04 0.04 0.04 0.03 0.03 0.03 0.03 0.04 0.05 0.03 0.03 0.04 0.04
0.04 0.06 0.04 0.02 0.04 0.05 0.02 0.01 0.01 0.01 0.02 0.02 0.04 0.08 0.09 0.05 0.03 0.02 0.01 0.01 0.01 0.01 0.01 0.02 0.02 0.02 0.03 0.03 0.02 0.02 0.03 0.02 0.02 0.02 0.01 0.01 0.02 0.02 0.02 0.02 0.03 0.03 0.03
0.01 0.03 0.02 0.01 0.02 0.02 0.02 0.02 0.02 0.02 0.02 0.03 0.04 0.05 0.04 0.03 0.03 0.02 0.01 0.01 0.01 0.01 0.01 0.02 0.01 0.01 0.02 0.03 0.02 0.02 0.02 0.02 0.02 0.02 0.02 0.01 0.01 0.01 0.02 0.03 0.03 0.03 0.03
0.01 0.00 0.00 0.01 0.03 0.02 0.01 0.02 0.02 0.01 0.02 0.02 0.02 0.03 0.02 0.02 0.03 0.03 0.02 0.02 0.02 0.01 0.01 0.01 0.02 0.02 0.03 0.02 0.01 0.02 0.02 0.02 0.02 0.03 0.02 0.02 0.02 0.03 0.03 0.04 0.03 0.03 0.03
0.01 0.01 0.01 0.01 0.02 0.01 0.01 0.01 0.01 0.01 0.02 0.02 0.03 0.02 0.01 0.02 0.03 0.03 0.05 0.03 0.02 0.02 0.01 0.01 0.01 0.01 0.02 0.01 0.01 0.02 0.02 0.02 0.02 0.02 0.02 0.02 0.02 0.02 0.03 0.03 0.03 0.04 0.04
0.01 0.01 0.01 0.02 0.01 0.01 0.01 0.01 0.01 0.01 0.01 0.02 0.02 0.02 0.02 0.02 0.02 0.04 0.04 0.02 0.02 0.02 0.02 0.02 0.02 0.02 0.02 0.02 0.02 0.02 0.01 0.01 0.01 0.01 0.02 0.01 0.01 0.01 0.02 0.01 0.01 0.02 0.03
0.02 0.01 0.01 0.02 0.01 0.01 0.02 0.02 0.02 0.02 0.02 0.02 0.02 0.03 0.03 0.03 0.04 0.04 0.03 0.03 0.02 0.02 0.02 0.02 0.03 0.02 0.02 0.03 0.03 0.02 0.01 0.01 0.00 0.01 0.01 0.01 0.02 0.02 0.02 0.03 0.03 0.03 0.03
0.03 0.03 0.02 0.02 0.02 0.02 0.03 0.04 0.05 0.05 0.04 0.03 0.03 0.05 0.06 0.05 0.04 0.03 0.03 0.02 0.02 0.03 0.03 0.03 0.03 0.03 0.03 0.03 0.02 0.02 0.01 0.01 0.01 0.01 0.01 0.01 0.01 0.02 0.02 0.02 0.03 0.03 0.03
0.05 0.05 0.05 0.04 0.04 0.04 0.04 0.05 0.06 0.05 0.03 0.02 0.03 0.04 0.04 0.04 0.03 0.03 0.02 0.02 0.02 0.02 0.02 0.02 0.02 0.02 0.03 0.03 0.02 0.02 0.03 0.02 0.02 0.02 0.01 0.01 0.01 0.02 0.02 0.02 0.01 0.01 0.01
0.07 0.06 0.06 0.05 0.05 0.04 0.05 0.07 0.09 0.09 0.05 0.03 0.03 0.03 0.03 0.03 0.03 0.02 0.02 0.02 0.01 0.01 0.01 0.01 0.02 0.01 0.01 0.02 0.03 0.03 0.03 0.02 0.03 0.03 0.03 0.03 0.02 0.03 0.03 0.02 0.01 0.01 0.01
0.04 0.04 0.05 0.05 0.04 0.07 0.10 0.13 0.14 0.11 0.05 0.03 0.02 0.03 0.04 0.03 0.02 0.02 0.02 0.01 0.01 0.01 0.01 0.01 0.01 0.01 0.01 0.01 0.02 0.04 0.03 0.03 0.03 0.03 0.03 0.03 0.02 0.02 0.02 0.01 0.01 0.01 0.00
0.04 0.04 0.04 0.05 0.08 0.10 0.12 0.12 0.10 0.07 0.05 0.04 0.03 0.03 0.03 0.03 0.03 0.03 0.03 0.03 0.03 0.02 0.02 0.01 0.01 0.01 0.01 0.01 0.03 0.04 0.04 0.04 0.03 0.02 0.02 0.01 0.02 0.01 0.01 0.01 0.01 0.00 0.01
0.05 0.04 0.07 0.08 0.09 0.09 0.09 0.08 0.07 0.06 0.05 0.04 0.03 0.03 0.03 0.02 0.02 0.02 0.02 0.03 0.02 0.02 0.02 0.01 0.01 0.01 0.01 0.01 0.02 0.03 0.03 0.04 0.03 0.03 0.03 0.02 0.02 0.02 0.01 0.01 0.01 0.01 0.02
0.05 0.06 0.07 0.09 0.08 0.08 0.07 0.07 0.06 0.06 0.04 0.03 0.02 0.02 0.02 0.01 0.02 0.03 0.02 0.02 0.02 0.01 0.02 0.01 0.02 0.02 0.01 0.01 0.02 0.02 0.02 0.02 0.03 0.03 0.03 0.03 0.03 0.02 0.02 0.02 0.03 0.03 0.02
0.04 0.05 0.06 0.06 0.06 0.05 0.06 0.05 0.04 0.03 0.03 0.03 0.02 0.02 0.01 0.01 0.02 0.02 0.03 0.02 0.03 0.03 0.03 0.02 0.02 0.02 0.02 0.02 0.02 0.02 0.02 0.03 0.03 0.04 0.04 0.03 0.03 0.03 0.03 0.03 0.04 0.04 0.04
0.03 0.04 0.05 0.05 0.05 0.04 0.04 0.04 0.03 0.03 0.03 0.02 0.02 0.02 0.02 0.02 0.02 0.02 0.03 0.04 0.04 0.04 0.04 0.04 0.03 0.03 0.02 0.02 0.02 0.02 0.02 0.04 0.04 0.04 0.03 0.03 0.03 0.02 0.02 0.03 0.05 0.06 0.07
0.06 0.07 0.07 0.08 0.07 0.06 0.05 0.04 0.03 0.03 0.02 0.02 0.02 0.02 0.02 0.02 0.03 0.03 0.03 0.05 0.05 0.05 0.05 0.04 0.04 0.04 0.04 0.04 0.02 0.02 0.02 0.03 0.03 0.03 0.03 0.03 0.02 0.02 0.02 0.02 0.02 0.03 0.04
MSLP
1012.07 1012.25 1012.44 1012.60 1012.76 1012.91 1013.10 1013.34 1013.67 1014.07 1014.54 1015.05 1015.54 1015.97 1016.31 1016.52 1016.61 1016.60 1016.53 1016.43 1016.36 1016.35 1016.43 1016.62 1016.91 1017.28 1017.71 1018.17 1018.64 1019.09 1019.52 1019.90 1020.24 1020.54 1020.79 1020.98 1021.13 1021.22 1021.24 1021.22 1021.12 1020.96 1020.72
1011.86 1012.17 1012.46 1012.71 1012.92 1013.09 1013.27 1013.50 1013.81 1014.21 1014.69 1015.23 1015.76 1016.23 1016.60 1016.82 1016.91 1016.87 1016.76 1016.63 1016.52 1016.50 1016.57 1016.76 1017.06 1017.42 1017.83 1018.25 1018.67 1019.05 1019.41 1019.73 1020.03 1020.33 1020.61 1020.88 1021.12 1021.34 1021.51 1021.62 1021.66 1021.61 1021.47
1011.54 1011.99 1012.43 1012.80 1013.09 1013.31 1013.50 1013.72 1014.00 1014.39 1014.87 1015.41 1015.97 1016.47 1016.86 1017.10 1017.19 1017.15 1017.02 1016.87 1016.74 1016.70 1016.77 1016.95 1017.22 1017.57 1017.94 1018.31 1018.65 1018.96 1019.23 1019.49 1019.76 1020.05 1020.36 1020.70 1021.05 1021.39 1021.69 1021.94 1022.10 1022.18 1022.14
1011.10 1011.71 1012.31 1012.82 1013.22 1013.51 1013.73 1013.94 1014.21 1014.57 1015.03 1015.57 1016.12 1016.64 1017.06 1017.33 1017.44 1017.41 1017.29 1017.14 1017.01 1016.96 1017.01 1017.17 1017.42 1017.73 1018.05 1018.36 1018.63 1018.86 1019.06 1019.27 1019.50 1019.77 1020.11 1020.50 1020.93 1021.37 1021.79 1022.16 1022.44 1022.62 1022.68
1010.58 1011.34 1012.10 1012.77 1013.29 1013.66 1013.92 1014.14 1014.39 1014.72 1015.14 1015.65 1016.21 1016.74 1017.18 1017.49 1017.64 1017.65 1017.56 1017.43 1017.31 1017.25 1017.29 1017.43 1017.65 1017.92 1018.18 1018.43 1018.63 1018.80 1018.94 1019.10 1019.29 1019.56 1019.90 1020.32 1020.80 1021.32 1021.82 1022.27 1022.65 1022.92 1023.07
1010.04 1010.93 1011.83 1012.64 1013.28 1013.74 1014.04 1014.27 1014.50 1014.80 1015.19 1015.68 1016.22 1016.76 1017.23 1017.58 1017.79 1017.85 1017.81 1017.71 1017.62 1017.57 1017.60 1017.72 1017.90 1018.12 1018.34 1018.53 1018.69 1018.80 1018.90 1019.01 1019.17 1019.42 1019.76 1020.18 1020.69 1021.23 1021.78 1022.29 1022.73 1023.07 1023.30
1009.53 1010.52 1011.54 1012.47 1013.21 1013.74 1014.10 1014.34 1014.56 1014.83 1015.19 1015.65 1016.17 1016.72 1017.22 1017.63 1017.89 1018.02 1018.04 1017.99 1017.93 1017.89 1017.92 1018.01 1018.16 1018.34 1018.52 1018.68 1018.79 1018.87 1018.94 1019.02 1019.16 1019.38 1019.69 1020.11 1020.60 1021.14 1021.70 1022.23 1022.71 1023.10 1023.39
1009.11 1010.16 1011.27 1012.28 1013.10 1013.70 1014.10 1014.36 1014.58 1014.83 1015.16 1015.60 1016.12 1016.68 1017.21 1017.65 1017.98 1018.17 1018.25 1018.25 1018.22 1018.19 1018.21 1018.29 1018.41 1018.56 1018.72 1018.84 1018.94 1019.01 1019.06 1019.14 1019.25 1019.45 1019.73 1020.10 1020.56 1021.07 1021.61 1022.14 1022.63 1023.05 1023.40
1008.84 1009.92 1011.07 1012.13 1013.00 1013.64 1014.08 1014.36 1014.59 1014.83 1015.15 1015.58 1016.10 1016.66 1017.21 1017.70 1018.07 1018.31 1018.44 1018.48 1018.48 1018.47 1018.48 1018.55 1018.65 1018.78 1018.92 1019.04 1019.14 1019.21 1019.28 1019.34 1019.45 1019.62 1019.86 1020.19 1020.59 1021.05 1021.55 1022.05 1022.54 1022.99 1023.37
1008.72 1009.80 1010.95 1012.02 1012.92 1013.59 1014.06 1014.37 1014.62 1014.88 1015.20 1015.63 1016.14 1016.71 1017.27 1017.78 1018.18 1018.46 1018.63 1018.70 1018.72 1018.71 1018.73 1018.78 1018.87 1019.00 1019.14 1019.27 1019.39 1019.48 1019.56 1019.64 1019.74 1019.89 1020.09 1020.36 1020.70 1021.10 1021.55 1022.02 1022.49 1022.94 1023.36
1008.75 1009.81 1010.93 1011.98 1012.86 1013.55 1014.04 1014.40 1014.68 1014.97 1015.33 1015.76 1016.28 1016.84 1017.41 1017.92 1018.33 1018.63 1018.81 1018.90 1018.93 1018.93 1018.95 1019.00 1019.10 1019.22 1019.38 1019.53 1019.68 1019.80 1019.91 1020.01 1020.11 1020.24 1020.41 1020.62 1020.90 1021.23 1021.62 1022.04 1022.49 1022.94 1023.37
1008.88 1009.88 1010.94 1011.94 1012.80 1013.49 1014.02 1014.42 1014.76 1015.11 1015.50 1015.96 1016.49 1017.05 1017.60 1018.10 1018.50 1018.80 1018.99 1019.09 1019.12 1019.14 1019.17 1019.23 1019.33 1019.48 1019.65 1019.83 1020.01 1020.17 1020.30 1020.42 1020.53 1020.64 1020.77 1020.94 1021.15 1021.42 1021.74 1022.12 1022.53 1022.96 1023.40
1009.02 1009.96 1010.94 1011.87 1012.70 1013.39 1013.95 1014.41 1014.83 1015.24 1015.69 1016.19 1016.73 1017.28 1017.82 1018.30 1018.68 1018.97 1019.16 1019.26 1019.32 1019.35 1019.40 1019.47 1019.59 1019.76 1019.95 1020.16 1020.36 1020.54 1020.70 1020.83 1020.94 1021.04 1021.13 1021.25 1021.41 1021.62 1021.88 1022.20 1022.57 1022.98 1023.40
1009.10 1009.95 1010.84 1011.70 1012.49 1013.18 1013.79 1014.33 1014.83 1015.33 1015.85 1016.39 1016.95 1017.50 1018.02 1018.47 1018.84 1019.11 1019.30 1019.42 1019.50 1019.56 1019.63 1019.74 1019.88 1020.06 1020.27 1020.49 1020.70 1020.90 1021.07 1021.20 1021.30 1021.38 1021.45 1021.53 1021.64 1021.78 1021.99 1022.25 1022.58 1022.94 1023.33
1009.04 1009.79 1010.59 1011.38 1012.13 1012.84 1013.50 1014.12 1014.73 1015.32 1015.92 1016.52 1017.10 1017.65 1018.15 1018.59 1018.94 1019.21 1019.41 1019.55 1019.66 1019.77 1019.88 1020.01 1020.18 1020.37 1020.58 1020.80 1021.01 1021.20 1021.35 1021.48 1021.56 1021.63 1021.67 1021.72 1021.79 1021.89 1022.04 1022.25 1022.52 1022.84 1023.18
1008.77 1009.44 1010.15 1010.88 1011.62 1012.35 1013.07 1013.79 1014.49 1015.19 1015.86 1016.51 1017.12 1017.68 1018.18 1018.61 1018.96 1019.24 1019.46 1019.65 1019.80 1019.95 1020.11 1020.28 1020.46 1020.66 1020.86 1021.05 1021.24 1021.40 1021.53 1021.64 1021.71 1021.75 1021.78 1021.81 1021.85 1021.92 1022.04 1022.20 1022.41 1022.67 1022.96
1008.30 1008.89 1009.53 1010.23 1010.96 1011.73 1012.53 1013.33 1014.14 1014.92 1015.67 1016.37 1017.01 1017.59 1018.09 1018.51 1018.87 1019.18 1019.45 1019.68 1019.90 1020.10 1020.31 1020.50 1020.70 1020.89 1021.07 1021.23 1021.37 1021.50 1021.60 1021.67 1021.73 1021.76 1021.79 1021.82 1021.85 1021.91 1021.99 1022.12 1022.29 1022.49 1022.72
1007.67 1008.21 1008.81 1009.48 1010.24 1011.05 1011.92 1012.81 1013.69 1014.56 1015.37 1016.11 1016.78 1017.36 1017.87 1018.31 1018.69 1019.04 1019.35 1019.65 1019.93 1020.19 1020.44 1020.66 1020.86 1021.03 1021.18 1021.30 1021.40 1021.48 1021.55 1021.60 1021.65 1021.69 1021.73 1021.77 1021.82 1021.88 1021.96 1022.06 1022.19 1022.35 1022.52
1006.98 1007.48 1008.07 1008.75 1009.53 1010.39 1011.32 1012.27 1013.22 1014.14 1014.99 1015.76 1016.44 1017.04 1017.56 1018.02 1018.43 1018.82 1019.19 1019.55 1019.88 1020.20 1020.48 1020.73 1020.92 1021.08 1021.19 1021.27 1021.33 1021.37 1021.42 1021.46 1021.52 1021.58 1021.66 1021.73 1021.81 1021.89 1021.98 1022.07 1022.18 1022.29 1022.41
1006.34 1006.84 1007.43 1008.12 1008.93 1009.83 1010.80 1011.79 1012.77 1013.72 1014.58 1015.36 1016.05 1016.65 1017.19 1017.67 1018.11 1018.55 1018.97 1019.37 1019.76 1020.12 1020.43 1020.68 1020.88 1021.01 1021.10 1021.15 1021.17 1021.20 1021.24 1021.30 1021.38 1021.48 1021.60 1021.72 1021.84 1021.96 1022.07 1022.16 1022.25 1022.33 1022.41
1005.85 1006.35 1006.96 1007.68 1008.50 1009.42 1010.40 1011.41 1012.39 1013.33 1014.19 1014.96 1015.65 1016.25 1016.79 1017.29 1017.77 1018.24 1018.70 1019.15 1019.57 1019.95 1020.28 1020.53 1020.72 1020.84 1020.91 1020.94 1020.96 1020.99 1021.04 1021.13 1021.25 1021.40 1021.57 1021.74 1021.91 1022.06 1022.19 1022.29 1022.37 1022.43 1022.48
1005.57 1006.09 1006.71 1007.43 1008.26 1009.17 1010.14 1011.12 1012.09 1013.00 1013.84 1014.59 1015.26 1015.85 1016.40 1016.92 1017.42 1017.91 1018.40 1018.86 1019.30 1019.69 1020.02 1020.27 1020.45 1020.56 1020.63 1020.66 1020.69 1020.75 1020.83 1020.96 1021.13 1021.33 1021.54 1021.76 1021.96 1022.14 1022.28 1022.39 1022.46 1022.51 1022.54
1005.51 1006.04 1006.65 1007.37 1008.18 1009.06 1009.99 1010.92 1011.84 1012.71 1013.51 1014.23 1014.89 1015.48 1016.03 1016.56 1017.07 1017.57 1018.07 1018.54 1018.97 1019.35 1019.67 1019.91 1020.08 1020.19 1020.26 1020.31 1020.37 1020.45 1020.58 1020.76 1020.97 1021.21 1021.46 1021.70 1021.92 1022.11 1022.25 1022.36 1022.42 1022.46 1022.48
1005.64 1006.15 1006.74 1007.43 1008.19 1009.01 1009.88 1010.76 1011.61 1012.43 1013.19 1013.89 1014.53 1015.12 1015.68 1016.21 1016.72 1017.22 1017.71 1018.16 1018.57 1018.92 1019.21 1019.44 1019.59 1019.71 1019.79 1019.87 1019.97 1020.09 1020.26 1020.47 1020.72 1020.98 1021.24 1021.49 1021.71 1021.88 1022.01 1022.10 1022.16 1022.19 1022.21
1005.87 1006.35 1006.90 1007.53 1008.22 1008.97 1009.76 1010.57 1011.36 1012.12 1012.85 1013.53 1014.16 1014.75 1015.31 1015.85 1016.36 1016.85 1017.31 1017.73 1018.10 1018.41 1018.67 1018.86 1019.01 1019.12 1019.22 1019.33 1019.45 1019.62 1019.82 1020.06 1020.32 1020.58 1020.84 1021.06 1021.25 1021.40 1021.50 1021.57 1021.61 1021.65 1021.68
1006.14 1006.56 1007.05 1007.60 1008.22 1008.89 1009.60 1010.33 1011.06 1011.78 1012.47 1013.13 1013.76 1014.36 1014.92 1015.46 1015.96 1016.42 1016.84 1017.22 1017.54 1017.80 1018.01 1018.17 1018.31 1018.42 1018.53 1018.66 1018.82 1019.01 1019.23 1019.48 1019.73 1019.97 1020.20 1020.39 1020.53 1020.64 1020.71 1020.76 1020.80 1020.84 1020.89
Thickness
5787 5787 5786 5785 5782 5780 5778 5776 5774 5772 5770 5767 5764 5761 5759 5759 5759 5759 5757 5756 5755 5753 5752 5749 5747 5745 5743 5741 5739 5737 5735 5733 5732 5729 5726 5727 5728 5728 5728 5727 5726 5725 5724
5786 5786 5786 5785 5783 5781 5779 5777 5775 5773 5771 5769 5766 5764 5762 5760 5759 5758 5757 5756 5755 5753 5751 5749 5747 5744 5742 5740 5738 5736 5733 5731 5731 5727 5722 5719 5719 5722 5725 5724 5723 5722 5721
5788 5787 5787 5786 5784 5782 5780 5779 5776 5774 5773 5771 5768 5765 5762 5759 5757 5756 5755 5755 5754 5753 5751 5749 5747 5744 5742 5739 5737 5736 5733 5730 5729 5729 5724 5717 5714 5715 5718 5719 5720 5719 5718
5793 5791 5790 5788 5787 5785 5783 5780 5778 5776 5774 5771 5768 5764 5760 5756 5755 5755 5755 5755 5754 5752 5751 5749 5746 5744 5742 5739 5737 5736 5734 5731 5728 5727 5725 5723 5721 5715 5711 5713 5715 5715 5714
5798 5796 5794 5793 5791 5789 5786 5783 5779 5777 5775 5772 5769 5765 5761 5759 5757 5756 5754 5753 5753 5752 5750 5748 5746 5744 5741 5739 5737 5735 5734 5731 5729 5726 5724 5721 5719 5717 5712 5708 5708 5710 5710
5802 5799 5798 5795 5792 5791 5788 5784 5780 5778 5775 5772 5770 5766 5763 5760 5757 5755 5753 5752 5751 5751 5750 5748 5746 5743 5741 5739 5737 5735 5733 5732 5730 5727 5724 5721 5718 5714 5711 5707 5705 5704 5705
5804 5801 5797 5794 5792 5790 5789 5785 5782 5779 5777 5773 5770 5768 5765 5762 5759 5757 5754 5752 5750 5749 5748 5747 5745 5743 5741 5739 5737 5734 5732 5731 5728 5726 5724 5722 5719 5717 5713 5708 5703 5701 5700
5807 5804 5801 5798 5796 5793 5791 5787 5784 5780 5777 5774 5771 5769 5766 5763 5760 5758 5755 5753 5750 5749 5748 5746 5744 5743 5741 5739 5736 5733 5731 5729 5727 5725 5723 5720 5718 5715 5712 5708 5703 5698 5695
5809 5806 5804 5801 5799 5795 5792 5790 5785 5781 5778 5775 5772 5769 5766 5763 5760 5758 5756 5753 5751 5749 5748 5746 5743 5741 5739 5737 5735 5731 5729 5727 5725 5723 5721 5718 5715 5713 5710 5708 5705 5699 5692
5809 5808 5806 5803 5800 5797 5794 5790 5787 5783 5779 5776 5772 5769 5765 5763 5760 5757 5754 5752 5750 5748 5746 5744 5741 5739 5737 5735 5733 5730 5727 5725 5722 5720 5718 5715 5713 5710 5707 5705 5702 5699 5694
5810 5809 5807 5804 5801 5797 5792 5789 5786 5782 5778 5775 5772 5768 5764 5762 5759 5756 5754 5751 5748 5746 5744 5742 5739 5737 5734 5732 5730 5727 5725 5722 5719 5717 5715 5713 5710 5708 5705 5702 5698 5694 5692
5810 5808 5805 5802 5798 5795 5791 5787 5784 5781 5778 5774 5770 5766 5763 5759 5756 5754 5752 5750 5746 5744 5742 5740 5737 5734 5732 5729 5727 5724 5722 5719 5716 5713 5711 5709 5707 5704 5701 5698 5694 5691 5688
5806 5804 5802 5799 5796 5793 5790 5786 5783 5780 5777 5773 5768 5764 5760 5757 5754 5752 5750 5747 5744 5741 5739 5737 5734 5731 5729 5727 5724 5721 5719 5715 5713 5710 5708 5705 5703 5700 5697 5694 5691 5687 5684
5802 5800 5798 5796 5794 5792 5789 5785 5782 5779 5775 5770 5765 5761 5758 5755 5752 5749 5746 5743 5740 5738 5735 5733 5730 5728 5726 5723 5720 5717 5715 5712 5709 5706 5704 5702 5699 5696 5693 5690 5686 5683 5679
5798 5797 5794 5793 5791 5788 5785 5782 5779 5776 5772 5767 5762 5758 5755 5752 5748 5745 5742 5739 5736 5734 5732 5729 5726 5724 5722 5719 5716 5713 5710 5707 5704 5702 5699 5697 5695 5693 5690 5687 5682 5679 5675
5794 5793 5791 5789 5787 5785 5781 5779 5775 5771 5768 5763 5759 5755 5751 5747 5743 5740 5736 5734 5731 5728 5726 5723 5721 5718 5716 5713 5711 5708 5704 5701 5699 5696 5694 5692 5690 5688 5685 5682 5679 5676 5671
5791 5790 5788 5786 5785 5782 5778 5774 5771 5768 5763 5759 5755 5750 5747 5742 5739 5736 5732 5728 5725 5723 5720 5717 5715 5712 5709 5707 5704 5702 5698 5696 5693 5691 5689 5687 5685 5683 5680 5677 5674 5670 5667
5788 5787 5785 5782 5779 5776 5772 5768 5763 5761 5758 5753 5749 5746 5742 5737 5733 5730 5726 5723 5720 5717 5714 5711 5709 5706 5703 5701 5698 5696 5693 5690 5688 5686 5684 5681 5679 5677 5674 5671 5668 5664 5661
5786 5785 5782 5779 5774 5771 5767 5762 5758 5752 5750 5747 5744 5741 5738 5733 5728 5724 5721 5718 5714 5711 5708 5706 5703 5700 5697 5694 5692 5690 5687 5684 5682 5681 5678 5676 5673 5671 5668 5665 5661 5658 5655
5781 5779 5776 5772 5767 5764 5762 5756 5750 5745 5742 5741 5739 5736 5732 5728 5724 5720 5716 5713 5710 5706 5703 5699 5696 5693 5690 5688 5686 5683 5681 5678 5676 5674 5671 5669 5667 5664 5661 5659 5655 5651 5648
5774 5772 5769 5765 5761 5760 5756 5750 5744 5739 5738 5735 5732 5730 5725 5722 5718 5714 5711 5707 5703 5699 5696 5693 5689 5687 5685 5682 5680 5677 5675 5672 5669 5667 5664 5662 5660 5657 5655 5652 5650 5647 5643
5765 5765 5761 5758 5754 5753 5749 5743 5738 5735 5732 5728 5725 5722 5719 5716 5712 5707 5703 5700 5696 5692 5688 5685 5683 5680 5678 5676 5674 5671 5669 5666 5663 5660 5658 5656 5654 5651 5649 5646 5643 5640 5636
5757 5756 5753 5749 5746 5744 5742 5737 5733 5729 5725 5721 5718 5715 5712 5708 5705 5701 5697 5693 5689 5685 5682 5679 5677 5675 5672 5669 5667 5665 5663 5660 5657 5654 5652 5650 5647 5645 5642 5639 5636 5633 5629
5748 5747 5744 5740 5736 5735 5734 5732 5727 5723 5718 5713 5709 5707 5704 5700 5697 5694 5691 5687 5683 5680 5676 5673 5671 5668 5665 5662 5660 5658 5656 5653 5650 5647 5644 5642 5639 5637 5634 5631 5628 5625 5622
5739 5738 5736 5732 5728 5726 5724 5722 5719 5716 5710 5705 5701 5698 5695 5691 5688 5686 5683 5681 5678 5675 5671 5668 5665 5662 5659 5657 5653 5651 5648 5646 5643 5640 5637 5635 5632 5629 5626 5623 5621 5617 5615
5728 5726 5725 5722 5720 5717 5715 5713 5710 5707 5702 5697 5693 5689 5686 5682 5680 5678 5674 5672 5670 5668 5664 5661 5658 5656 5655 5651 5648 5645 5642 5638 5635 5633 5631 5628 5625 5622 5619 5617 5613 5610 5607